GW2935 Weather Reports


time (UTC)temp
F
wind
direction
speed
knots
gust
knots
rain 1hr
in
rain 24hr
in
rain mn
in
humidity
%
barometer
mb
20260506130047 77 0 0.0 1.7 0.00 0.00 0.00 93 1009.9
20260506124547 76 70 0.0 1.7 0.00 0.00 0.00 93 1009.8
20260506123048 76 0 0.0 3.5 0.00 0.00 0.00 93 1009.7
20260506121550 76 258 0.9 3.5 0.00 0.00 0.00 94 1009.4
20260506120047 76 52 0.0 4.3 0.00 0.00 0.00 94 1009.3
20260506114548 76 103 0.0 1.7 0.00 0.00 0.00 94 1009.2
20260506113048 75 0 0.0 2.6 0.00 0.00 0.00 94 1009.0
20260506111549 75 25 0.0 7.0 0.00 0.00 0.00 94 1008.8
20260506110101 75 0 0.0 1.7 0.00 0.00 0.00 94 1008.6
20260506104549 75 0 0.0 3.5 0.00 0.00 0.00 94 1008.6
20260506103047 75 0 0.0 2.6 0.00 0.00 0.00 94 1008.6
20260506101556 75 0 0.0 5.2 0.00 0.00 0.00 94 1008.6
20260506100045 75 11 0.9 2.6 0.00 0.00 0.00 94 1008.6
20260506094543 75 0 0.0 2.6 0.00 0.00 0.00 93 1008.3
20260506093044 76 155 0.0 2.6 0.00 0.00 0.00 93 1008.3
20260506091543 76 0 0.0 5.2 0.00 0.00 0.00 92 1008.3
20260506090059 76 58 0.0 4.3 0.00 0.00 0.00 92 1008.5
20260506084557 76 167 0.9 3.5 0.00 0.00 0.00 91 1008.5
20260506083042 77 236 0.0 4.3 0.00 0.00 0.00 91 1008.7
20260506081547 77 165 0.9 3.5 0.00 0.00 0.00 91 1008.8
20260506073046 77 204 0.9 3.5 0.00 0.00 0.00 91 1009.0
20260506071552 77 298 0.0 2.6 0.00 0.00 0.00 90 1009.1
20260506061549 77 123 0.0 5.2 0.00 0.00 0.00 91 1009.5
20260506050109 77 359 0.0 1.7 0.00 0.00 0.00 91 1009.5
20260506044547 77 220 0.0 2.6 0.00 0.00 0.00 91 1009.5
20260506043046 77 0 0.0 7.0 0.00 0.00 0.00 90 1009.4
20260506041557 77 32 0.9 5.2 0.00 0.00 0.00 90 1009.4
20260506040048 77 101 0.0 4.3 0.00 0.00 0.00 89 1009.5
20260506034551 78 0 0.0 4.3 0.00 0.00 0.00 88 1009.2
20260506033048 78 98 1.7 6.1 0.00 0.00 0.00 88 1009.0
20260506031544 78 346 0.9 6.1 0.00 0.00 0.00 88 1008.9
20260506030047 78 243 0.0 5.2 0.00 0.00 0.00 87 1008.8
20260506024548 78 80 0.9 5.2 0.00 0.00 0.00 86 1008.7
20260506023049 78 0 0.0 4.3 0.00 0.00 0.00 85 1008.5
20260506021552 78 204 1.7 6.1 0.00 0.00 0.00 85 1008.2
20260506020051 79 65 0.9 4.3 0.00 0.00 0.00 85 1008.1
20260506014547 79 79 0.9 6.1 0.00 0.00 0.00 85 1007.9
20260506013053 79 139 0.9 3.5 0.00 0.00 0.00 84 1007.7
20260506011549 79 55 0.9 4.3 0.00 0.00 0.00 83 1007.4
20260506010048 80 354 1.7 4.3 0.00 0.00 0.00 81 1007.3
20260506004543 80 300 0.9 5.2 0.00 0.00 0.00 80 1007.3
20260506003051 80 0 0.9 4.3 0.00 0.00 0.00 80 1007.0
20260506001553 80 240 0.9 4.3 0.00 0.00 0.00 80 1006.9
20260506000057 81 134 1.7 7.0 0.00 0.00 0.00 79 1007.0
20260505234546 81 260 2.6 7.0 0.00 0.00 0.00 78 1006.9
20260505233051 81 40 0.9 5.2 0.00 0.00 0.00 79 1006.9
20260505231549 82 286 0.9 7.8 0.00 0.00 0.00 78 1006.9
20260505230112 82 127 0.9 7.8 0.00 0.00 0.00 79 1007.0
20260505224544 82 98 1.7 6.1 0.00 0.00 0.00 78 1006.8
20260505223048 83 155 0.9 7.8 0.00 0.00 0.00 77 1006.9
20260505221556 83 17 1.7 6.1 0.00 0.00 0.00 76 1006.9
20260505220056 84 23 0.9 7.0 0.00 0.00 0.00 75 1007.1
20260505214549 84 63 1.7 6.1 0.00 0.00 0.00 74 1007.3
20260505213045 84 53 1.7 6.1 0.00 0.00 0.00 76 1007.5
20260505211559 84 123 1.7 7.0 0.00 0.00 0.00 75 1007.5
20260505210045 84 59 0.9 6.1 0.00 0.00 0.00 77 1007.7
20260505204547 84 67 1.7 7.8 0.00 0.00 0.00 76 1008.0
20260505203045 85 267 0.9 4.3 0.00 0.00 0.00 74 1008.2
20260505201552 85 151 1.7 7.0 0.00 0.00 0.00 73 1008.5
20260505200106 84 259 0.9 6.1 0.00 0.00 0.00 75 1008.5
20260505194549 84 293 1.7 7.0 0.00 0.00 0.00 74 1008.7
20260505193100 84 46 0.9 4.3 0.00 0.00 0.00 77 1008.9
20260505191557 82 356 1.7 7.8 0.00 0.00 0.00 78 1009.0
20260505190052 83 301 0.9 5.2 0.00 0.00 0.00 77 1009.0
20260505184559 82 172 0.9 4.3 0.00 0.00 0.00 80 1009.1
20260505183045 81 83 0.9 6.1 0.00 0.00 0.00 80 1009.2
20260505181555 80 266 0.9 6.1 0.00 0.00 0.00 82 1009.2
20260505180051 80 43 0.0 5.2 0.00 0.00 0.00 83 1009.3
20260505174549 80 353 0.0 3.5 0.00 0.00 0.00 82 1009.4
20260505173046 80 0 0.9 5.2 0.00 0.00 0.00 82 1009.6
20260505171546 79 12 0.9 4.3 0.00 0.00 0.00 82 1009.6
20260505170043 79 298 0.9 5.2 0.00 0.00 0.00 84 1009.8
20260505164549 79 223 0.9 6.1 0.00 0.00 0.00 83 1009.8
20260505163045 79 37 0.9 4.3 0.00 0.00 0.00 82 1009.7
20260505161546 79 98 1.7 5.2 0.00 0.00 0.00 82 1009.6
20260505153052 78 0 0.0 3.5 0.00 0.00 0.00 84 1009.4
20260505151552 78 248 0.9 4.3 0.00 0.00 0.00 84 1009.4